Location: Praha
(50.0830°N, 14.4670°E)
Time: 01:33:56
(UTC+01:00)

ISS - Pass Details

Date: 27 November 2020
Orbit: 418 x 420 km, 51.6° (Epoch: 05 December)

Event Time Altitude Azimuth Distance (km) Brightness Sun altitude
Rises 18:58:55 0° 276° (W) 2,363 1.3 -27.1°
Reaches altitude 10° 19:01:02 10° 280° (W) 1,500 0.0 -27.4°
Enters shadow 19:02:18 21° 285° (WNW) 998 -1.2 -27.7°
